C/2019 Q3 ( PanSTARRS )

Japanese version
Home page
Updated on September 14, 2019

---------------------------------------------------------------------

* Profile

Discovery Date August 29, 2019
Magnitude 21.1 mag
Discoverer Pan-STARRS 1 telescope (Haleakala)

* Orbital Elements

Epoch 2018 Aug. 30.0 TT = JDT 2458360.5                                         
T 2018 Aug. 20.19345 TT                                 Bell                    
q   7.2493297            (2000.0)            P               Q                  
z  -0.0006223      Peri.  152.58239     +0.68731418     +0.58032644             
 +/-0.0000144      Node   151.32257     -0.71099508     +0.41447078             
e   1.0045113      Incl.   65.54602     +0.14861095     -0.70102439             
From 78 observations 2019 July 3-Sept. 6, mean residual 0".3.                   

* Magnitudes Graph

        m1 = 8.0 + 5 log d + 10.0 log r

---------------------------------------------------------------------

The orbital elements are published on M.P.E.C. 2019-R102.
The magnitudes graphs are made with Comet for Windows.

---------------------------------------------------------------------

Copyright(C) Seiichi Yoshida (comet@aerith.net). All rights reserved.